EW1620 Weather Reports


Display with metric or nautical units.
time (UTC)temp
F
wind
direction
speed
MPH
gust
MPH
rain 1hr
in
rain 24hr
in
rain mn
in
humidity
%
barometer
mb
20260504004530 62 311 8.0 18.0 0.00 0.02 0.00 60 1010.3
20260504004028 62 346 4.0 14.0 0.00 0.02 0.00 60 1010.3
20260504003628 62 344 8.0 17.0 0.00 0.02 0.00 60 1010.3
20260504003028 62 329 8.0 17.0 0.00 0.02 0.00 61 1010.3
20260504002526 61 9 3.0 14.0 0.00 0.02 0.00 62 1010.2
20260504002125 61 280 6.0 17.0 0.00 0.02 0.00 62 1010.3
20260504001525 61 11 9.0 17.0 0.00 0.02 0.00 62 1010.4
20260504001124 61 315 6.0 13.0 0.00 0.02 0.00 63 1010.4
20260504000522 61 336 5.0 15.0 0.00 0.02 0.00 65 1010.4
20260504000023 60 333 7.0 15.0 0.00 0.05 0.00 64 1010.4
20260503235520 60 42 6.0 13.0 0.00 0.05 0.00 65 1010.4
20260503235019 60 360 4.0 12.0 0.00 0.05 0.00 66 1010.4
20260503234522 60 315 3.0 16.0 0.00 0.05 0.00 66 1010.4
20260503234017 60 14 5.0 14.0 0.00 0.05 0.00 66 1010.5
20260503233616 60 330 7.0 14.0 0.00 0.05 0.00 67 1010.5
20260503233013 59 311 8.0 14.0 0.00 0.05 0.00 67 1010.6
20260503232515 59 40 5.0 16.0 0.00 0.05 0.00 67 1010.6
20260503232011 59 301 7.0 16.0 0.00 0.05 0.00 69 1010.7
20260503231516 59 18 5.0 13.0 0.00 0.05 0.00 71 1010.6
20260503231111 59 318 6.0 13.0 0.00 0.05 0.00 71 1010.6
20260503230507 58 350 4.0 10.0 0.00 0.05 0.00 72 1010.6
20260503230006 58 350 3.0 10.0 0.00 0.06 0.00 73 1010.7
20260503225504 58 325 3.0 10.0 0.00 0.06 0.00 74 1010.6
20260503225007 57 17 4.0 10.0 0.00 0.06 0.00 75 1010.6
20260503224502 57 360 3.0 9.0 0.00 0.06 0.00 76 1010.6
20260503224101 56 29 4.0 10.0 0.00 0.06 0.00 77 1010.7
20260503223559 56 45 4.0 9.0 0.00 0.06 0.00 78 1010.7
20260503223058 55 5 3.0 9.0 0.00 0.06 0.00 79 1010.7
20260503222556 55 13 3.0 9.0 0.00 0.06 0.00 80 1010.8
20260503222054 54 5 3.0 9.0 0.00 0.06 0.00 80 1010.9
20260503221553 54 25 3.0 9.0 0.00 0.06 0.00 81 1010.8
20260503221052 54 355 3.0 9.0 0.00 0.06 0.00 81 1010.7
20260503220551 53 10 4.0 10.0 0.00 0.06 0.00 81 1010.7
20260503220050 53 336 4.0 10.0 0.00 0.06 0.00 82 1010.7
20260503215549 53 18 4.0 9.0 0.00 0.06 0.00 82 1010.7
20260503215049 52 349 3.0 9.0 0.00 0.06 0.00 82 1010.7
20260503214555 52 360 3.0 8.0 0.00 0.06 0.00 82 1010.7
20260503214050 52 11 2.0 5.0 0.00 0.06 0.00 81 1010.7
20260503213546 52 20 1.0 4.0 0.00 0.06 0.00 81 1010.8
20260503213112 52 355 1.0 4.0 0.00 0.06 0.00 81 1010.8
20260503212546 51 22 2.0 5.0 0.00 0.06 0.00 81 1010.7
20260503212047 51 329 2.0 5.0 0.00 0.06 0.00 81 1010.8
20260503211610 51 280 1.0 4.0 0.00 0.06 0.00 81 1010.6
20260503211047 51 329 1.0 4.0 0.00 0.06 0.00 81 1010.4
20260503210543 51 355 1.0 3.0 0.00 0.06 0.00 81 1010.3
20260503210043 51 351 0.0 4.0 0.00 0.06 0.00 80 1010.3
20260503205543 51 5 0.0 4.0 0.00 0.09 0.00 80 1010.3
20260503205045 52 9 0.0 4.0 0.00 0.09 0.00 80 1010.2
20260503204559 52 360 2.0 4.0 0.00 0.09 0.00 80 1010.3
20260503204042 52 355 1.0 3.0 0.00 0.09 0.00 80 1010.3
20260503203541 52 343 1.0 3.0 0.00 0.09 0.00 80 1010.4
20260503203041 52 5 1.0 4.0 0.00 0.09 0.00 80 1010.3
20260503202540 52 5 1.0 4.0 0.00 0.09 0.00 80 1010.2
20260503202044 52 5 1.0 3.0 0.00 0.09 0.00 80 1010.3
20260503201540 52 348 1.0 3.0 0.00 0.09 0.00 80 1010.4
20260503201039 52 327 0.0 3.0 0.00 0.09 0.00 80 1010.4
20260503200539 52 344 0.0 3.0 0.00 0.09 0.00 80 1010.4
20260503200039 52 337 1.0 4.0 0.00 0.09 0.00 80 1010.4
20260503195538 52 339 1.0 4.0 0.00 0.13 0.00 80 1010.4
20260503195038 53 355 1.0 3.0 0.00 0.13 0.00 80 1010.2
20260503194540 53 346 0.0 3.0 0.00 0.13 0.00 80 1010.2
20260503194038 53 346 0.0 3.0 0.00 0.13 0.00 80 1010.2
20260503193539 53 341 1.0 3.0 0.00 0.13 0.00 80 1010.2
20260503193040 53 341 0.0 3.0 0.00 0.13 0.00 80 1010.2
20260503192537 53 9 0.0 4.0 0.00 0.13 0.00 80 1010.2
20260503192037 53 21 2.0 4.0 0.00 0.13 0.00 80 1010.2
20260503191553 53 5 1.0 3.0 0.00 0.13 0.00 80 1010.4
20260503191036 53 5 0.0 3.0 0.00 0.13 0.00 80 1010.4
20260503190535 53 360 0.0 3.0 0.00 0.13 0.00 79 1010.5
20260503190037 53 355 0.0 3.0 0.00 0.13 0.00 79 1010.6
20260503185537 53 331 1.0 4.0 0.00 0.13 0.00 79 1010.6
20260503185037 53 333 0.0 2.0 0.00 0.13 0.00 79 1010.5
20260503184535 53 15 1.0 3.0 0.00 0.13 0.00 79 1010.6
20260503184036 53 340 1.0 8.0 0.00 0.13 0.00 79 1010.6
20260503183533 53 340 2.0 8.0 0.00 0.13 0.00 79 1010.6
20260503183041 53 340 1.0 4.0 0.00 0.13 0.00 80 1010.6
20260503182532 53 14 1.0 4.0 0.00 0.13 0.00 80 1010.6
20260503182030 53 348 1.0 5.0 0.00 0.13 0.00 80 1010.8
20260503181530 53 348 2.0 6.0 0.00 0.13 0.00 80 1010.7
20260503181029 53 24 2.0 6.0 0.00 0.13 0.00 80 1010.8
20260503180528 53 325 2.0 8.0 0.00 0.13 0.00 80 1010.8
20260503180033 53 331 4.0 8.0 0.00 0.13 0.00 81 1010.8
20260503175527 52 337 3.0 8.0 0.00 0.13 0.00 81 1010.8
20260503175027 52 331 4.0 8.0 0.00 0.13 0.00 81 1010.8
20260503174536 51 21 4.0 9.0 0.00 0.13 0.00 81 1010.8
20260503174026 51 355 4.0 9.0 0.00 0.13 0.00 81 1010.8
20260503173526 51 336 3.0 6.0 0.00 0.13 0.00 81 1010.8
20260503173025 51 316 2.0 5.0 0.00 0.13 0.00 81 1010.8
20260503172523 51 336 1.0 4.0 0.00 0.13 0.00 80 1010.9
20260503172023 51 30 1.0 3.0 0.00 0.13 0.00 80 1010.9
20260503171528 51 26 0.0 2.0 0.00 0.13 0.00 80 1011.0
20260503171024 51 26 0.0 3.0 0.00 0.13 0.00 80 1011.0
20260503170522 51 24 1.0 3.0 0.00 0.13 0.00 80 1011.1
20260503151010 52 20 2.0 8.0 0.00 0.13 0.00 81 1011.3
20260503150511 52 16 1.0 4.0 0.00 0.13 0.00 81 1011.3
20260503131054 54 325 0.0 3.0 0.00 0.13 0.13 83 1011.9
20260503130555 54 325 0.0 3.0 0.00 0.13 0.13 84 1011.9
20260503120151 54 355 0.0 2.0 0.00 0.13 0.13 81 1012.4
20260503110543 55 355 0.0 1.0 0.00 0.13 0.13 78 1012.0
20260503110144 55 355 0.0 2.0 0.00 0.13 0.13 77 1012.1
20260503081536 61 20 0.0 2.0 0.00 0.13 0.13 65 1010.4
20260503081021 61 20 0.0 3.0 0.00 0.13 0.13 65 1010.4
20260503080521 62 20 0.0 5.0 0.00 0.13 0.13 65 1010.4
20260503072525 64 317 2.0 9.0 0.00 0.13 0.13 60 1010.4
20260503072022 64 344 2.0 7.0 0.00 0.13 0.13 59 1010.4
20260503071535 65 348 3.0 7.0 0.00 0.13 0.13 58 1010.3
20260503071021 65 329 2.0 6.0 0.00 0.13 0.13 58 1010.1
20260503070525 65 325 1.0 7.0 0.00 0.13 0.13 57 1010.1
20260503055018 67 298 4.0 14.0 0.00 0.13 0.13 53 1010.3
20260503054530 67 355 7.0 14.0 0.00 0.13 0.13 53 1010.3
20260503054021 67 309 5.0 11.0 0.00 0.13 0.13 53 1010.3
20260503053520 67 267 5.0 12.0 0.00 0.13 0.13 54 1010.4
20260503053015 67 265 4.0 16.0 0.00 0.13 0.13 53 1010.2
20260503052516 67 270 7.0 16.0 0.00 0.13 0.13 52 1010.2
20260503052016 67 275 9.0 16.0 0.00 0.13 0.13 51 1010.2
20260503051515 68 286 9.0 19.0 0.00 0.13 0.13 50 1010.2
20260503051019 68 301 9.0 19.0 0.00 0.13 0.13 48 1010.2
20260503050515 69 273 11.0 19.0 0.00 0.13 0.13 45 1010.1
20260503050015 70 275 4.0 15.0 0.00 0.13 0.13 43 1009.9
20260503045515 70 306 6.0 13.0 0.00 0.13 0.13 41 1009.8
20260503045018 69 333 5.0 18.0 0.00 0.13 0.13 42 1009.8
20260503044514 70 342 8.0 18.0 0.00 0.13 0.13 42 1009.7
20260503044013 70 309 8.0 18.0 0.00 0.13 0.13 43 1009.7
20260503043514 70 313 7.0 16.0 0.00 0.13 0.13 43 1009.5
20260503043016 70 340 6.0 18.0 0.00 0.13 0.13 43 1009.5
20260503042514 70 334 7.0 18.0 0.00 0.13 0.13 43 1009.6
20260503042014 70 341 7.0 16.0 0.00 0.13 0.13 45 1009.5
20260503041519 70 302 2.0 14.0 0.00 0.13 0.13 48 1009.4
20260503041011 69 344 3.0 8.0 0.00 0.13 0.13 49 1009.5
20260503040509 68 355 2.0 6.0 0.00 0.13 0.13 52 1009.4
20260503040015 68 360 2.0 8.0 0.00 0.13 0.13 54 1009.5
20260503035641 68 5 2.0 10.0 0.00 0.13 0.13 55 1009.6
20260503035006 67 348 4.0 12.0 0.00 0.13 0.13 55 1009.5
20260503034506 67 346 6.0 13.0 0.00 0.13 0.13 57 1009.4
20260503034003 67 360 6.0 13.0 0.00 0.13 0.13 61 1009.4
20260503033503 66 327 5.0 12.0 0.00 0.13 0.13 66 1009.4
20260503033001 66 279 3.0 9.0 0.00 0.13 0.13 67 1009.7
20260503032600 66 346 3.0 10.0 0.00 0.13 0.13 68 1009.6
20260503032102 65 292 5.0 11.0 0.00 0.13 0.13 68 1009.7
20260503031600 65 336 5.0 15.0 0.00 0.13 0.13 68 1009.6
20260503031059 65 338 6.0 16.0 0.00 0.13 0.13 69 1009.9
20260503030559 65 281 7.0 16.0 0.00 0.13 0.13 70 1009.9
20260503030058 64 287 5.0 15.0 0.00 0.13 0.13 72 1009.9
20260503025559 64 351 8.0 13.0 0.00 0.13 0.13 72 1009.9
20260503025102 64 269 5.0 13.0 0.00 0.13 0.13 74 1010.1
20260503024614 64 320 2.0 8.0 0.00 0.13 0.13 75 1010.1
20260503024058 64 272 3.0 11.0 0.00 0.13 0.13 75 1009.8
20260503023600 64 266 5.0 11.0 0.00 0.13 0.13 76 1010.0
20260503023100 64 267 2.0 6.0 0.00 0.13 0.13 77 1009.9
20260503022600 64 244 1.0 6.0 0.00 0.13 0.13 77 1010.0
20260503022100 64 289 2.0 10.0 0.00 0.13 0.13 77 1010.0
20260503021602 63 303 4.0 10.0 0.00 0.13 0.13 77 1009.9
20260503021100 64 311 6.0 13.0 0.00 0.13 0.13 76 1010.1
20260503020559 64 259 8.0 14.0 0.00 0.13 0.13 75 1010.1
20260503020104 65 267 6.0 14.0 0.00 0.13 0.13 75 1010.2
20260503015601 65 273 4.0 12.0 0.00 0.13 0.13 76 1010.1
20260503015104 66 304 6.0 11.0 0.00 0.13 0.13 77 1010.0
20260503014627 66 279 6.0 15.0 0.00 0.13 0.13 81 1009.8
20260503014058 66 338 7.0 15.0 0.01 0.13 0.13 82 1009.8
20260503013557 65 303 3.0 11.0 0.02 0.13 0.13 83 1009.6
20260503013053 65 315 3.0 16.0 0.02 0.13 0.13 83 1009.8
20260503012554 64 346 6.0 16.0 0.02 0.13 0.13 83 1009.8
20260503012051 64 323 8.0 15.0 0.02 0.13 0.13 84 1009.7
20260503011615 64 333 4.0 12.0 0.02 0.13 0.13 85 1009.5
20260503011054 64 21 4.0 15.0 0.02 0.13 0.13 85 1009.3
20260503010551 64 11 4.0 18.0 0.02 0.13 0.13 85 1009.4
20260503010050 64 333 9.0 18.0 0.02 0.13 0.13 86 1009.5
20260503005552 64 335 9.0 17.0 0.02 0.13 0.13 86 1009.5
20260503005050 64 17 4.0 14.0 0.02 0.13 0.13 86 1009.6